Big Bear City, CA

9:23 PM PST on December 11, 2019 (GMT -0800)
Big Bear City

Weather History for KL35 - June, 2019

Change the Weather History Date:

Saturday, June 8, 2019

  Actual Average (KBUO) Record (KBUO)
Temperature  
Mean Temperature 53 °F -  
Max Temperature 69 °F 77 °F 91 °F (2001)
Min Temperature 37 °F 52 °F 48 °F (1999)
Degree Days  
Heating Degree Days 12    
Growing Degree Days 3 (Base 50)    
Moisture  
Dew Point 29 °F    
Average Humidity 40    
Maximum Humidity 81    
Minimum Humidity 21    
Precipitation  
Precipitation 0.00 in - - ()
Sea Level Pressure  
Sea Level Pressure 30.15 in    
Wind  
Wind Speed 4 mph (ENE)    
Max Wind Speed 12 mph    
Max Gust Speed 16 mph    
Visibility 10 miles    
Events      
Averages and records for this station are not official NWS values.
T = Trace of Precipitation, MM = Missing Value Source: NWS Daily Summary

Daily Weather History Graph

Daily Weather History Graph

Search for Another Location

Airport or City:

Astronomy

Jun. 08, 2019 Rise Set
Actual Time 5:35 AM PDT 7:58 PM PDT
Civil Twilight 5:06 AM PDT 8:27 PM PDT
Nautical Twilight 4:30 AM PDT 9:03 PM PDT
Astronomical Twilight 3:51 AM PDT 9:42 PM PDT
Moon 11:02 AM PDT (6/8) 12:07 AM PDT (6/8)
Length of Visible Light 15h 21m
Length of Day
14h 22m
Waxing Crescent, 34% of the Moon is Illuminated
Jun 8
Waxing Crescent
Jun 9
First Quarter
Jun 17
Full
Jun 25
Last Quarter
Jul 2
New

Hourly Weather History & Observations

Time (PDT) Temp. Windchill Dew Point Humidity Pressure Visibility Wind Dir Wind Speed Gust Speed Precip Events Conditions
12:15 AM 50.0 °F - 30.2 °F 47% 30.08 in 10.0 mi WSW 3.5 mph - N/A   Clear
12:35 AM 50.0 °F - 30.2 °F 47% 30.08 in 10.0 mi West 5.8 mph - N/A   Clear
12:55 AM 48.2 °F - 32.0 °F 54% 30.08 in 10.0 mi WSW 3.5 mph - N/A   Clear
1:15 AM 50.0 °F - 32.0 °F 50% 30.08 in 10.0 mi SW 3.5 mph - N/A   Clear
1:35 AM 48.2 °F - 32.0 °F 54% 30.07 in 10.0 mi SW 3.5 mph - N/A   Clear
1:55 AM 46.4 °F 43.5 °F 32.0 °F 57% 30.07 in 10.0 mi WSW 5.8 mph - N/A   Clear
2:15 AM 50.0 °F - 32.0 °F 50% 30.06 in 10.0 mi West 5.8 mph - N/A   Clear
2:35 AM 50.0 °F - 32.0 °F 50% 30.06 in 10.0 mi WSW 4.6 mph - N/A   Clear
2:55 AM 46.4 °F - 32.0 °F 57% 30.06 in 10.0 mi Calm Calm - N/A   Clear
3:15 AM 44.6 °F - 32.0 °F 61% 30.07 in 10.0 mi Calm Calm - N/A   Clear
3:35 AM 42.8 °F - 32.0 °F 66% 30.07 in 10.0 mi Calm Calm - N/A   Clear
3:55 AM 42.8 °F - 32.0 °F 66% 30.07 in 10.0 mi Calm Calm - N/A   Clear
4:15 AM 42.8 °F - 32.0 °F 66% 30.07 in 10.0 mi Calm Calm - N/A   Clear
4:35 AM 41.0 °F - 32.0 °F 70% 30.07 in 10.0 mi Calm Calm - N/A   Clear
4:55 AM 41.0 °F - 32.0 °F 70% 30.08 in 10.0 mi Calm Calm - N/A   Clear
5:15 AM 39.2 °F - 32.0 °F 75% 30.08 in 10.0 mi Calm Calm - N/A   Clear
5:35 AM 37.4 °F - 32.0 °F 81% 30.08 in 10.0 mi Calm Calm - N/A   Clear
5:55 AM 37.4 °F - 32.0 °F 81% 30.09 in 10.0 mi Calm Calm - N/A   Clear
6:15 AM 39.2 °F - 32.0 °F 75% 30.09 in 10.0 mi Calm Calm - N/A   Clear
6:35 AM 42.8 °F - 32.0 °F 66% 30.10 in 10.0 mi Calm Calm - N/A   Clear
6:55 AM 44.6 °F - 33.8 °F 66% 30.10 in 10.0 mi Calm Calm - N/A   Clear
7:15 AM 48.2 °F - 35.6 °F 62% 30.11 in 10.0 mi West 3.5 mph - N/A   Clear
7:35 AM 51.8 °F - 33.8 °F 50% 30.11 in 10.0 mi Calm Calm - N/A   Clear
7:55 AM 53.6 °F - 32.0 °F 44% 30.11 in 10.0 mi West 3.5 mph - N/A   Clear
8:15 AM 59.0 °F - 33.8 °F 39% 30.12 in 10.0 mi Calm Calm - N/A   Clear
8:35 AM 60.8 °F - 32.0 °F 34% 30.12 in 10.0 mi East 4.6 mph - N/A   Clear
8:55 AM 60.8 °F - 30.2 °F 31% 30.12 in 10.0 mi East 9.2 mph - N/A   Clear
9:15 AM 60.8 °F - 30.2 °F 31% 30.12 in 10.0 mi ENE 11.5 mph - N/A   Clear
9:35 AM 60.8 °F - 30.2 °F 31% 30.13 in 10.0 mi NE 11.5 mph - N/A   Clear
9:55 AM 60.8 °F - 30.2 °F 31% 30.14 in 10.0 mi East 10.4 mph - N/A   Clear
10:15 AM 60.8 °F - 28.4 °F 29% 30.14 in 10.0 mi East 11.5 mph 16.1 mph N/A   Clear
10:35 AM 62.6 °F - 28.4 °F 27% 30.14 in 10.0 mi East 9.2 mph - N/A   Clear
10:55 AM 60.8 °F - 28.4 °F 29% 30.15 in 10.0 mi East 10.4 mph 16.1 mph N/A   Clear
11:15 AM 62.6 °F - 28.4 °F 27% 30.16 in 10.0 mi East 9.2 mph - N/A   Clear
11:35 AM 60.8 °F - 26.6 °F 27% 30.16 in 10.0 mi NE 8.1 mph - N/A   Clear
11:55 AM 62.6 °F - 26.6 °F 26% 30.16 in 10.0 mi ENE 9.2 mph - N/A   Clear
12:15 PM 62.6 °F - 26.6 °F 26% 30.17 in 10.0 mi East 9.2 mph - N/A   Clear
12:35 PM 64.4 °F - 26.6 °F 24% 30.17 in 10.0 mi ENE 10.4 mph - N/A   Clear
12:55 PM 64.4 °F - 26.6 °F 24% 30.17 in 10.0 mi East 9.2 mph - N/A   Clear
1:15 PM 64.4 °F - 26.6 °F 24% 30.17 in 10.0 mi ENE 8.1 mph - N/A   Clear
1:35 PM 66.2 °F - 28.4 °F 24% 30.18 in 10.0 mi NE 9.2 mph - N/A   Clear
1:55 PM 66.2 °F - 28.4 °F 24% 30.18 in 10.0 mi ENE 9.2 mph - N/A   Clear
2:15 PM 66.2 °F - 26.6 °F 23% 30.18 in 10.0 mi ENE 6.9 mph - N/A   Clear
2:35 PM 68.0 °F - 26.6 °F 21% 30.18 in 10.0 mi East 11.5 mph - N/A   Clear
2:55 PM 68.0 °F - 28.4 °F 23% 30.19 in 10.0 mi East 10.4 mph - N/A   Clear
3:15 PM 68.0 °F - 26.6 °F 21% 30.19 in 10.0 mi ENE 8.1 mph - N/A   Clear
3:35 PM 68.0 °F - 26.6 °F 21% 30.19 in 10.0 mi ENE 10.4 mph 16.1 mph N/A   Clear
3:55 PM 68.0 °F - 28.4 °F 23% 30.18 in 10.0 mi NE 9.2 mph - N/A   Clear
4:15 PM 68.0 °F - 28.4 °F 23% 30.18 in 10.0 mi ENE 8.1 mph - N/A   Clear
4:35 PM 69.8 °F - 28.4 °F 21% 30.18 in 10.0 mi NE 10.4 mph - N/A   Clear
4:55 PM 68.0 °F - 28.4 °F 23% 30.18 in 10.0 mi ENE 9.2 mph - N/A   Clear
5:15 PM 69.8 °F - 28.4 °F 21% 30.19 in 10.0 mi ENE 6.9 mph - N/A   Clear
5:35 PM 68.0 °F - 26.6 °F 21% 30.18 in 10.0 mi ENE 10.4 mph - N/A   Clear
5:55 PM 68.0 °F - 26.6 °F 21% 30.19 in 10.0 mi NE 6.9 mph - N/A   Clear
6:15 PM 68.0 °F - 26.6 °F 21% 30.19 in 10.0 mi NE 8.1 mph - N/A   Clear
6:35 PM 66.2 °F - 26.6 °F 23% 30.20 in 10.0 mi NNE 4.6 mph - N/A   Clear
6:55 PM 66.2 °F - 26.6 °F 23% 30.20 in 10.0 mi North 5.8 mph - N/A   Clear
7:15 PM 64.4 °F - 26.6 °F 24% 30.20 in 10.0 mi NNE 3.5 mph - N/A   Clear
7:35 PM 64.4 °F - 26.6 °F 24% 30.21 in 10.0 mi NE 3.5 mph - N/A   Clear
7:55 PM 62.6 °F - 26.6 °F 26% 30.21 in 10.0 mi Calm Calm - N/A   Clear
8:15 PM 60.8 °F - 26.6 °F 27% 30.22 in 10.0 mi Calm Calm - N/A   Clear
8:35 PM 57.2 °F - 28.4 °F 33% 30.23 in 10.0 mi Calm Calm - N/A   Clear
8:55 PM 53.6 °F - 30.2 °F 41% 30.23 in 10.0 mi Calm Calm - N/A   Clear
9:15 PM 51.8 °F - 30.2 °F 44% 30.24 in 10.0 mi Calm Calm - N/A   Clear
9:35 PM 51.8 °F - 30.2 °F 44% 30.25 in 10.0 mi Calm Calm - N/A   Clear
9:55 PM 50.0 °F - 28.4 °F 43% 30.26 in 10.0 mi Calm Calm - N/A   Clear
10:15 PM 50.0 °F - 28.4 °F 43% 30.26 in 10.0 mi Calm Calm - N/A   Clear
10:35 PM 48.2 °F - 28.4 °F 46% 30.26 in 10.0 mi Calm Calm - N/A   Clear
10:55 PM 46.4 °F - 28.4 °F 50% 30.27 in 10.0 mi Calm Calm - N/A   Clear
11:15 PM 46.4 °F - 28.4 °F 50% 30.27 in 10.0 mi Calm Calm - N/A   Clear
11:35 PM 44.6 °F - 28.4 °F 53% 30.27 in 10.0 mi Calm Calm - N/A   Clear
11:55 PM 44.6 °F - 28.4 °F 53% 30.27 in 10.0 mi Calm Calm - N/A   Clear